Tracking 19280 objects as of 14-Nov-2018
HD Live streaming from Space Station
objects crossing your sky now

COSMOS 312

Track COSMOS 312 now!
10-day predictions
COSMOS 312 is classified as:


NORAD ID: 4254
Int'l Code: 1969-103A
Perigee: 1,148.2 km
Apogee: 1,181.4 km
Inclination: 74.0 °
Period: 108.5 minutes
Semi major axis: 7535 km
RCS: 3.057 m2 (large)
Launch date: November 24, 1969
Source: Commonwealth of Independent States (former USSR) (CIS)
Launch site: PLESETSK MISSILE AND SPACE COMPLEX (PKMTR)
aabbcc
Your satellite tracking list
Your tracking list is empty




NASA's NSSDC Master Catalog

Two Line Element Set (TLE):
1  4254U 69103A   18317.60873833 -.00000013 +00000-0 +14941-4 0  9990
2  4254 074.0221 354.5905 0022013 062.9486 051.1554 13.27119711371811
Source of the keplerian elements: AFSPC